Location: Castellar de la Frontera
(36.3200°N, 5.4500°W)
Time: 02:18:26
(UTC+02:00)

ISS - Pass Details

Date: 21 July 2018
Orbit: 402 x 408 km, 51.6° (Epoch: 17 July)

Event Time Altitude Azimuth Distance (km) Brightness Sun altitude
Rises 04:33:56 0° 323° (NW) 2,327 0.3 -25.9°
Reaches altitude 10° 04:36:35 10° 346° (NNW) 1,465 -0.5 -25.6°
Maximum altitude 04:38:45 16° 27° (NNE) 1,145 -0.7 -25.4°
Drops below altitude 10° 04:40:55 10° 69° (ENE) 1,463 -0.3 -25.1°
Sets 04:43:33 0° 91° (E) 2,321 0.5 -24.8°
